GSAT0220 (PRN E13)

Last updated on Oct. 31, 2020, 5:53 a.m. UTC

1 43567U 18060D   20304.15867386 -.00000090  00000-0  00000-0 0  9993
2 43567  56.8942  37.3673 0003956 252.4735 107.4939  1.70476365 14121
UTC
Height (km)
Latitude
Longitude
Inclination
Orbital Period
UTC large
Height (km)
Speed (km/s)
/
Latitude / Longitude
Inclination (degrees)
Orbital Period (minutes)
Azimuth
Elevation
Range (km)
Doppler Factor
iOS Compass Heading
iOS Angle

Next 30 passes for location: Hong Kong

Rise time Rise Azimuth (degrees) Set time Set Azimuth (degrees) Duration Max altitude (degrees)

No matching passes for this satellites